Content
SEND FEEDBACK

Daily
Averages
Monthly
Summary
United States of America

STINNETT, TEXAS


Home > North America > United States > Texas
Elevation: 3200 feet     Latitude: 36 03N     Longitude: 101 28W

WEATHER
 
SELECT A DAY
Number of Records: 171,576;   Date Range: 7/1/96 - 7/23/14
 
SHARE

PRINT THIS DATA

[ ← Previous Day ]
WEATHER ALMANAC - JANUARY 31, 2013
[ Next Day → ]
[ °C ]   °F
Weather ElementAverageHighLow
Temperature42 °F57.9 °F (1:51 pm)30.9 °F (6:51 am)
Dewpoint20.5 °F24.1 °F (8:51 pm)17.1 °F (1:51 pm)
Humidity45.9 %69 % (11:51 pm)20 % (1:51 pm)
Barometer30.13 in30.29 in (11:51 pm)30.01 in (3:51 am)
Wind Speed10.5 mph16.1 mph (2:51 pm)
Wind Gust20.7 mph (1:25 pm)
Weather ElementAverage
Visibility10 mi
Wind DirectionSSW (186.7 °)

Weather ElementTotal
Precipitation---
Heating Degree Days20.6 (Base 65)
Averaged from 24 records on January 31, 2013
WEATHER CONDITIONS BREAKOUT
WIND DIRECTION BREAKOUT
WEATHER BY HOUR - JANUARY 31, 2013
[ °C ]   °F
Local TimeTemperatureDewpointHumidityBarometerVisibilityWind DirectionWind SpeedGust SpeedPrecipitationEventsConditions
1:51 AM34.0 °F21.0 °F59 %30.02 in10.0 miWSW (240°)10.4 mphClear
2:51 AM34.0 °F21.0 °F59 %30.02 in10.0 miWSW (240°)10.4 mphClear
3:51 AM33.1 °F21.0 °F61 %30.01 in10.0 miWest (260°)8.1 mphClear
4:51 AM32.0 °F19.9 °F61 %30.01 in10.0 miWSW (250°)10.4 mphClear
5:51 AM32.0 °F21.0 °F64 %30.02 in10.0 miWSW (240°)11.5 mphClear
6:51 AM30.9 °F21.0 °F67 %30.05 in10.0 miSW (230°)10.4 mphClear
7:51 AM30.9 °F19.9 °F64 %30.08 in10.0 miWSW (240°)9.2 mphClear
8:51 AM35.1 °F19.0 °F52 %30.10 in10.0 miWSW (240°)10.4 mphClear
9:51 AM41.0 °F19.0 °F41 %30.11 in10.0 miWest (260°)9.2 mphClear
10:51 AM46.0 °F19.9 °F35 %30.13 in10.0 miWSW (250°)10.4 mphClear
11:51 AM51.1 °F21.0 °F31 %30.11 in10.0 miWest (260°)8.1 mphClear
12:51 PM57.0 °F19.9 °F24 %30.09 in10.0 miWest (280°)9.2 mphClear
1:25 PM57.2 °F19.4 °F23 %30.10 in10.0 miNorth (360°)11.5 mph20.7 mphClear
1:51 PM57.9 °F17.1 °F20 %30.09 in10.0 miNorth (360°)13.8 mphClear
2:51 PM55.0 °F17.1 °F23 %30.11 in10.0 miNNE (20°)16.1 mphClear
3:51 PM53.1 °F18.0 °F25 %30.16 in10.0 miNNE (30°)15.0 mphClear
4:51 PM51.1 °F19.9 °F29 %30.19 in10.0 miNE (50°)11.5 mph18.4 mphClear
5:51 PM48.0 °F19.9 °F33 %30.22 in10.0 miENE (70°)11.5 mph19.6 mphClear
6:51 PM46.0 °F21.9 °F39 %30.25 in10.0 miEast (80°)9.2 mphClear
7:51 PM44.1 °F23.0 °F43 %30.26 in10.0 miEast (100°)11.5 mph19.6 mphClear
8:51 PM39.0 °F24.1 °F55 %30.27 in10.0 miEast (80°)10.4 mphClear
9:51 PM36.0 °F23.0 °F59 %30.26 in10.0 miESE (110°)11.5 mph17.3 mphClear
10:51 PM33.1 °F23.0 °F66 %30.28 in10.0 miESE (120°)6.9 mphClear
11:51 PM30.9 °F21.9 °F69 %30.29 in10.0 miESE (110°)4.6 mphClear
Hourly data recorded from KBGD, located miles away from Stinnett, Texas







STORIES FROM OUR PARTNERS